TimePHT,TemperatureF,Dew PointF,Humidity,Sea Level PressureIn,VisibilityMPH,Wind Direction,Wind SpeedMPH,Gust SpeedMPH,PrecipitationIn,Events,Conditions,WindDirDegrees,DateUTC
2:00 AM,78,75,89,29.87,6,Calm,Calm,,,,Haze,,2012-10-05 18:00:00
2:00 AM,77.0,75.2,94,29.86,6.2,Calm,Calm,-,N/A,,Mostly Cloudy,0,2012-10-05 18:00:00
5:00 AM,77,72,80,29.88,6,West,2.2,,,,Haze,270,2012-10-05 21:00:00
5:00 AM,77.0,71.6,83,29.89,6.2,West,2.3,-,N/A,,Overcast,270,2012-10-05 21:00:00
7:00 AM,77.0,73.4,89,29.92,6.2,Calm,Calm,-,N/A,,Overcast,0,2012-10-05 23:00:00
8:00 AM,80,74,79,29.92,6,Calm,Calm,,,,Haze,,2012-10-06 00:00:00
8:00 AM,80.6,75.2,84,29.92,6.2,Calm,Calm,-,N/A,,Overcast,0,2012-10-06 00:00:00
9:00 AM,84.2,75.2,74,29.92,5.6,West,4.6,-,N/A,,Overcast,270,2012-10-06 01:00:00
10:00 AM,86.0,75.2,70,29.92,5.6,WSW,2.3,-,N/A,,Mostly Cloudy,250,2012-10-06 02:00:00
11:00 AM,88,75,58,29.91,6,WSW,2.2,,,,Haze,250,2012-10-06 03:00:00
11:00 AM,86.0,75.2,70,29.92,5.6,WSW,2.3,-,N/A,,Mostly Cloudy,250,2012-10-06 03:00:00
12:00 PM,87.8,77.0,70,29.89,5.6,West,11.5,-,N/A,,Mostly Cloudy,270,2012-10-06 04:00:00
1:00 PM,89.6,73.4,59,29.86,5.6,West,6.9,-,N/A,,Mostly Cloudy,270,2012-10-06 05:00:00
2:00 PM,89,74,52,29.84,6,West,6.7,,,,Haze,270,2012-10-06 06:00:00
2:00 PM,89.6,73.4,59,29.86,5.6,West,6.9,-,N/A,,Mostly Cloudy,270,2012-10-06 06:00:00
3:00 PM,87.8,75.2,66,29.86,5.6,WSW,11.5,-,N/A,,Mostly Cloudy,250,2012-10-06 07:00:00
4:00 PM,86.0,73.4,66,29.83,5.6,WSW,4.6,-,N/A,,Mostly Cloudy,250,2012-10-06 08:00:00
5:00 PM,86,72,55,29.85,6,WSW,4.5,,,,Haze,250,2012-10-06 09:00:00
5:00 PM,86.0,71.6,62,29.86,5.6,WSW,4.6,-,N/A,,Mostly Cloudy,250,2012-10-06 09:00:00
6:00 PM,84.2,73.4,70,29.89,5.6,WSW,2.3,-,N/A,,Mostly Cloudy,250,2012-10-06 10:00:00
8:00 PM,81,74,75,29.90,6,Calm,Calm,,,,Haze,,2012-10-06 12:00:00
8:00 PM,80.6,75.2,84,29.92,5.6,Calm,Calm,-,N/A,,Mostly Cloudy,0,2012-10-06 12:00:00
11:00 PM,79,74,80,29.92,6,Calm,Calm,,,,Haze,,2012-10-06 15:00:00
11:00 PM,78.8,73.4,83,29.92,6.2,Calm,Calm,-,N/A,,Mostly Cloudy,0,2012-10-06 15:00:00